Flag for Algeria Weather past 2 weeks in Constantine, Algeria

Now
68 °F

Clear.


Feels Like: 68 °F
Forecast: 71 / 94 °F
Wind: 5 mph from Southeast

Location: Constantine Airport

Current Time: Aug 31, 2015 at 6:12:41 AM

Latest Report: Aug 31, 2015 at 5:30 AM


Visibility: 10 mi

Pressure: 30.09 "Hg (28.20 "Hg at 557m altitude)

Humidity: 73%

Dew point: 59 °F

Location of ConstantineLocation

Historic Weather in Constantine — Graph

°F

Constantine temperature yesterday

Maximum temperature yesterday: 93 °F (at 4:00 PM)
Minimum temperature yesterday: 64 °F (at 3:00 AM)
Average temperature yesterday: 78 °F

Past Weeks' High & Low Weather Summary

 TemperatureHumidityPressure
High99 °F (Aug 24, 1:30 PM)100% (Aug 24, 4:00 PM)30.24 "Hg (Aug 24, 4:00 PM)
Low59 °F (Aug 17, 6:00 AM)17% (Aug 22, 1:30 PM)29.92 "Hg (Aug 17, 4:30 PM)
Average77 °F58%30.09 "Hg
* Reported Aug 16 4:00 AM — Aug 31 4:00 AM, Constantine, Weather by CustomWeather, © 2015

Note: Actual official high and low records may vary slightly from our data, if they occured in-between our weather recording intervals... More about our weather records

Advertising

Constantine weather history for previous 24 hours

 ConditionsComfort  
Time TempWeatherWind HumidityBarometerVisibility
4:00 AM
Mon, Aug 31
70 °FPassing clouds.2 mph69%30.09 "HgN/A
3:30 AM72 °FPassing clouds.No wind65%30.12 "HgN/A
3:00 AM72 °FPassing clouds.No wind65%30.12 "HgN/A
2:30 AM73 °FPassing clouds.No wind61%30.12 "HgN/A
2:00 AM73 °FPassing clouds.No wind61%30.12 "HgN/A
1:30 AM75 °FPassing clouds.No wind57%30.15 "HgN/A
1:00 AM75 °FPassing clouds.2 mph57%30.15 "HgN/A
12:30 AM73 °FPassing clouds.2 mph61%30.15 "HgN/A
12:00 AM73 °FPassing clouds.2 mph61%30.15 "HgN/A
11:30 PM
Sun, Aug 30
75 °FPassing clouds.5 mph57%30.15 "HgN/A
11:00 PM77 °FPassing clouds.3 mph57%30.15 "HgN/A
10:30 PM77 °FPassing clouds.7 mph57%30.15 "HgN/A
10:00 PM79 °FPassing clouds.7 mph51%30.15 "HgN/A
9:30 PM79 °FPassing clouds.7 mph54%30.12 "HgN/A
8:30 PM81 °FPassing clouds.3 mph51%30.12 "HgN/A
8:00 PM82 °FPassing clouds.3 mph48%30.12 "HgN/A
7:30 PM82 °FPassing clouds.5 mph48%30.09 "HgN/A
7:00 PM86 °FScattered clouds.6 mph46%30.09 "HgN/A
6:30 PM88 °FScattered clouds.6 mph38%30.09 "HgN/A
6:00 PM90 °FScattered clouds.7 mph33%30.09 "HgN/A
5:30 PM91 °FThunderstorms. Scattered clouds.12 mph32%30.09 "HgN/A
5:00 PM91 °FThunderstorms. Scattered clouds.13 mph32%30.12 "HgN/A
4:30 PM93 °FThunderstorms. Scattered clouds.3 mph28%30.12 "HgN/A
4:00 PM93 °FThunderstorms. Passing clouds.3 mph28%30.12 "HgN/A
3:30 PM91 °FPassing clouds.3 mph32%30.12 "HgN/A
3:00 PM91 °FPassing clouds.5 mph32%30.12 "HgN/A
2:30 PM91 °FPassing clouds.3 mph30%30.12 "HgN/A
2:00 PM91 °FScattered clouds.3 mph32%30.15 "HgN/A
1:30 PM90 °FScattered clouds.3 mph33%30.15 "HgN/A
1:00 PM88 °FScattered clouds.3 mph35%30.15 "HgN/A
11:00 AM86 °FScattered clouds.5 mph33%30.18 "HgN/A
10:00 AM81 °FScattered clouds.3 mph51%30.18 "HgN/A
9:30 AM77 °FScattered clouds.3 mph54%30.18 "HgN/A
9:00 AM77 °FScattered clouds.3 mph54%30.18 "HgN/A
8:30 AM73 °FScattered clouds.3 mph61%30.18 "HgN/A
8:00 AM73 °FScattered clouds.No wind57%30.18 "HgN/A
7:30 AM72 °FScattered clouds.No wind65%30.18 "HgN/A
7:00 AM66 °FScattered clouds.No wind78%30.18 "HgN/A
6:30 AM64 °FScattered clouds.3 mph78%30.15 "HgN/A
6:00 AM64 °FPassing clouds.No wind78%30.15 "HgN/A
Weather by CustomWeather, © 2015

See weather overviewHow to use our weather pages